STARLINK-6093 (56099 NORAD) Tracking and Keplerian Element Data

This shows tracking and keplerian element data for the satellite.

Feedback or suggestion? Click here.




ElementValue
Catalog56099
NameSTARLINK-6093
Epoch Orbit652
Epoch Day127.25001157
Epoch Year2023
RAAN37.9214
Inclination43.001
Eccentricity0.0001495
Argument of Perigee273.0068
Mean Anonmoly58.499
Mean Motion15.28153587
Decay Rate-0.00901652
L11 56099U 23046G 23127.25001157 -.00901652 00000+0 -35117-1 0 9992
L22 56099 43.0010 37.9214 0001495 273.0068 58.4990 15.28153587 6523



Live tracking and technical data element details for STARLINK-6093 (NORAD 56099). STARLINK-6093 can be tracked NOW for your location showing map with azimuth and elevation plus other details from your city location.







IsCatalogInMostPopularTable: catalog: 56099, numindb: -1

Insert: records affected: 1


GetName: 56099 STARLINK-6093

Hit Count: inserted at: Sat, 03 Jun 2023 18:41:17 GMT